Regional Weather Roundup
Issued by NWS

Home | Current Version | Previous Version | Text Only | Print | Product List | Glossary Off
Versions: 1 2 3 4 5 6 7 8 9 10 11 12 13 14 15 16 17 18 19 20 21 22 23 24 25 26 27 28 29 30 31 32 33 34 35 36 37 38 39 40 41 42 43 44 45 46 47 48 49 50

000
ASUS43 KLSX 291907
RWRMO

WEATHER SUMMARY FOR MISSOURI
NATIONAL WEATHER SERVICE SPRINGFIELD MO
200 PM CDT SAT AUG 29 2015

NOTE: "FAIR" INDICATES FEW OR NO CLOUDS BELOW 12,000 FEET WITH NO
       SIGNIFICANT WEATHER AND/OR OBSTRUCTIONS TO VISIBILITY.
       CURRENT SKY AND/OR WEATHER CONDITIONS ARE NOT AVAILABLE FOR
       CHILLICOTHE AND FARMINGTON.

MOZ001>031-035>038-043-044-053-054-292000-
...NORTHERN AND WESTERN MISSOURI...

CITY           SKY/WX    TMP DP  RH WIND       PRES   REMARKS
KANSAS CTY INT CLOUDY    73  67  81 NW5       30.03F
KANSAS C DTWN  CLOUDY    75  68  78 N3        30.01F
LEE`S SUMMIT   CLOUDY    76  67  73 N7        30.02S
ST JOSEPH      CLOUDY    72  66  81 N6        30.04S
CHILLICOTHE      N/A     78  70  76 VRB3      30.01F
KIRKSVILLE     CLOUDY    78  68  71 CALM      30.01F

$$
MOZ066>068-077>081-088>096-101>105-292000-
...SOUTHWEST MISSOURI...

CITY           SKY/WX    TMP DP  RH WIND       PRES   REMARKS
SPRINGFIELD    CLOUDY    79  66  64 S5        30.01F
JOPLIN         MOSUNNY   81  68  64 S9        30.00F

$$
MOZ032>034-039>042-045>050-055>058-069>072-292000-
...CENTRAL MISSOURI...

CITY           SKY/WX    TMP DP  RH WIND       PRES   REMARKS
COLUMBIA       MOSUNNY   82  67  60 S6        30.00F
JEFFERSON CITY SUNNY     83  62  49 SE6       29.98F
ROLLA          LGT RAIN  81  67  62 S9        30.01F
SEDALIA        CLOUDY    80  66  62 W6        30.02S
WHITEMAN AFB   CLOUDY    78  68  71 VRB1      29.99S
WARRENSBURG    CLOUDY    79  66  65 CALM      30.00S
OSAGE BEACH    PTSUNNY   82  63  51 W8        30.01S

$$
MOZ051-052-059>065-292000-
...EAST CENTRAL MISSOURI...

CITY           SKY/WX    TMP DP  RH WIND       PRES   REMARKS
ST LOUIS INTL  CLOUDY    83  66  56 SW9       30.03S
SPIRIT OF STL  CLOUDY    80  68  66 S7        30.01S
ST CHARLES     CLOUDY    80  68  66 SW6       30.01S

$$
MOZ072>076-082>087-097>100-106>115-292000-
...SOUTH CENTRAL AND SOUTHEAST MISSOURI...

CITY           SKY/WX    TMP DP  RH WIND       PRES   REMARKS
CAPE GIRARDEAU PTSUNNY   83  69  62 SW9       30.03F
FARMINGTON     CLOUDY    75  64  69 S7        30.07F
POPLAR BLUFF   CLOUDY    78  67  68 NW7       30.04F
WEST PLAINS    CLOUDY    71  66  84 S5        30.07F

$$


USA.gov is the U.S. government's official web portal to all federal, state and local government web resources and services.